SCP
0 0 0 0 0 0 -0 -0 0 0 0 0 0 0 1 2 2 3 2 2 2 2 2 1 1 1 1 1 1 1 1 1 1 1 0 0 0 0 0 0 0 -0 -0 -0
0 0 0 0 0 0 -0 -0 0 0 0 0 0 0 1 2 3 3 2 2 2 1 1 1 0 0 0 0 0 0 0 0 0 0 0 0 0 0 0 0 0 0 0 0
0 0 0 0 0 0 0 -0 0 0 0 1 1 1 2 2 2 3 2 2 1 1 0 0 0 0 0 0 0 0 0 0 0 0 0 0 0 0 0 0 0 0 0 0
0 0 0 0 0 0 0 0 0 -0 0 0 0 0 1 2 2 2 1 1 1 1 0 0 0 0 0 0 0 0 0 0 0 0 0 0 0 0 0 0 0 0 0 0
0 0 0 0 0 0 0 0 0 0 1 1 0 0 1 1 1 1 0 1 1 1 0 0 0 0 0 0 0 1 0 0 1 1 1 0 0 0 0 0 0 0 0 0
0 0 0 0 0 0 0 0 -0 0 0 0 0 1 1 0 0 -0 0 -0 0 0 0 0 0 0 0 1 1 1 1 1 1 0 0 0 0 0 0 0 0 0 0 0
0 0 0 0 0 0 0 -0 0 0 0 0 1 1 0 0 0 0 0 0 0 0 0 0 0 0 0 1 2 1 1 0 0 0 0 0 0 0 0 0 0 0 0 0
0 0 0 0 -0 0 0 1 1 0 1 1 1 1 0 0 0 0 0 -0 0 0 0 0 0 0 1 1 1 0 0 0 0 0 0 -0 -0 0 0 0 0 0 0 0
0 -0 0 -0 0 0 0 1 1 1 1 1 1 0 0 0 0 0 0 0 0 0 0 0 0 0 0 1 1 1 0 0 0 0 0 0 0 0 0 0 0 0 0 0
0 0 0 0 0 0 0 1 1 1 1 0 0 0 0 0 0 0 0 0 0 0 0 0 0 0 0 0 0 0 0 0 0 0 0 0 0 0 0 0 0 0 0 0
-0 -0 0 0 0 0 0 0 0 0 0 0 0 0 0 0 0 0 0 0 0 0 0 0 0 0 0 0 0 0 0 0 0 0 0 0 0 0 0 0 0 0 0 0
0 0 0 0 0 0 0 0 0 0 0 0 0 0 0 0 0 0 0 0 0 0 0 0 0 0 0 0 0 0 0 0 0 0 0 0 0 0 0 0 0 0 0 0
0 0 0 0 0 0 0 0 0 0 0 0 0 0 0 0 0 0 0 0 0 0 0 0 0 0 0 0 0 0 0 0 0 0 0 0 0 0 0 0 0 0 0 0
0 0 0 0 0 0 0 0 0 0 0 0 0 0 0 0 0 0 0 0 0 0 0 0 0 0 0 0 0 0 0 0 0 0 0 0 0 0 0 0 0 0 0 0
0 0 0 0 0 0 0 0 0 0 0 0 0 0 0 0 0 0 0 0 0 0 0 0 0 0 0 0 0 0 0 0 0 0 0 0 0 0 0 0 0 0 0 0
0 0 0 0 0 0 0 0 0 0 0 0 0 0 0 0 0 0 0 0 0 0 0 0 0 0 0 0 0 0 0 0 0 0 0 0 0 0 0 0 0 0 0 0
0 0 0 0 0 0 0 0 0 0 0 0 0 0 0 0 0 0 0 0 0 0 0 0 0 0 0 0 0 0 0 0 0 0 0 0 0 0 0 0 0 0 0 0
0 0 0 0 0 0 0 0 0 0 0 0 0 0 0 0 0 0 0 0 0 0 0 0 0 0 0 0 0 0 0 0 0 0 0 0 0 0 0 0 0 0 0 0
0 0 0 0 0 0 0 0 0 0 0 0 0 0 0 0 0 0 0 0 0 0 0 0 0 0 0 0 0 0 0 0 0 0 0 0 0 0 0 0 0 0 0 0
0 0 0 0 0 0 0 0 0 0 0 0 0 0 0 0 0 0 0 0 0 0 -0 0 0 0 0 -0 0 0 0 0 0 0 0 0 0 0 0 0 0 0 0 0
0 0 0 0 0 0 0 0 0 0 0 0 0 0 0 0 0 0 0 0 0 0 0 -0 0 0 -0 -0 0 0 0 0 0 0 0 0 0 0 0 0 0 0 0 0
0 0 0 0 0 0 0 0 0 0 0 0 0 0 0 0 0 0 0 0 0 0 0 0 0 -0 -0 -0 -0 -0 -0 0 0 0 0 0 0 0 0 0 0 0 0 0
0 0 0 0 0 0 0 0 0 0 0 0 0 0 0 0 0 0 0 0 0 0 0 0 0 -0 -0 0 -0 -0 -0 -0 0 0 0 0 0 0 0 0 0 0 0 0
0 0 0 0 0 0 0 0 0 0 0 0 0 -0 0 0 0 0 0 0 0 0 0 0 0 -0 0 0 0 0 -0 -0 -0 0 -0 -0 0 0 0 0 0 0 0 0
0 0 0 0 0 0 0 0 0 0 0 0 -0 -0 -0 -0 0 0 0 0 0 0 0 0 0 0 0 0 0 0 0 0 0 -0 0 -0 -0 0 0 0 0 0 0 0
0 0 0 0 0 0 0 0 0 0 0 0 0 0 0 0 0 0 0 0 0 0 0 0 0 0 0 0 0 0 0 0 0 0 -0 -0 -0 -0 -0 0 0 0 0 0
0 0 0 0 0 0 0 0 0 0 0 0 0 0 0 0 0 0 0 -0 0 0 0 0 0 0 0 0 0 0 0 0 0 0 0 -0 -0 -0 -0 -0 -0 0 0 0
Wind_Speed_500mb
7 9 3 10 10 26 29 8 3 6 19 30 24 19 44 53 51 59 59 58 53 40 30 18 12 12 14 15 17 18 17 19 23 26 29 31 31 31 31 29 25 24 24 24
10 9 2 18 12 27 41 51 1 26 15 12 38 39 40 43 47 56 61 61 52 40 28 18 14 13 12 13 12 15 18 16 20 22 21 24 29 34 35 36 36 34 31 29
5 8 1 9 19 29 29 24 9 6 17 16 15 24 37 38 52 50 53 47 42 40 29 22 18 10 9 5 12 15 18 15 17 22 30 31 36 39 38 37 36 34 33 30
3 7 5 9 4 21 18 27 44 17 26 30 32 28 39 39 57 51 50 44 36 28 24 14 18 20 18 10 9 17 12 14 19 18 26 36 39 42 42 42 41 38 33 29
8 4 8 13 6 6 3 21 23 7 22 37 44 35 29 45 42 19 42 37 27 21 20 21 27 24 15 9 12 19 21 21 14 15 27 35 39 42 43 46 45 43 41 37
7 8 10 6 14 4 20 18 38 22 17 29 26 8 2 28 31 38 14 24 13 20 11 8 14 10 10 12 9 10 14 17 17 25 30 34 39 38 42 42 50 56 55 53
5 4 4 9 19 49 13 15 15 26 23 29 11 18 41 19 29 37 19 15 16 9 14 25 10 2 7 15 18 19 24 32 39 42 48 46 49 49 53 56 55 54 58 51
6 13 10 41 14 10 20 14 33 32 42 52 49 47 46 41 43 37 33 9 13 11 7 11 12 17 20 29 33 36 40 50 50 50 53 61 65 61 56 53 52 50 49 49
4 15 64 64 28 27 27 17 11 22 20 43 47 43 26 12 4 28 30 14 18 17 13 13 16 15 18 17 22 36 43 43 43 52 59 66 58 51 54 52 54 55 54 53
7 4 5 27 20 11 12 27 17 15 47 40 37 35 43 41 37 32 21 14 9 12 13 16 24 25 23 22 31 46 49 51 52 56 58 51 49 51 53 56 54 55 58 60
12 35 3 8 15 17 15 9 21 27 32 41 44 45 40 35 27 20 19 17 15 16 20 19 19 24 30 37 41 46 46 47 48 48 44 54 53 49 52 57 56 55 53 45
10 9 14 19 19 10 17 9 9 23 22 20 28 32 28 36 32 25 19 12 9 9 11 18 23 28 31 35 36 38 43 52 51 51 51 48 58 77 68 64 52 54 63 62
15 15 17 11 10 9 7 14 13 30 27 25 21 23 33 33 25 15 9 12 19 23 25 31 35 39 43 46 49 53 56 57 54 52 57 68 71 59 58 54 55 60 55 50
22 16 9 3 7 10 9 24 29 27 24 31 34 34 29 22 14 16 19 21 26 28 33 39 45 51 57 60 60 53 52 53 55 57 59 58 53 57 56 62 68 70 58 52
8 4 2 8 13 6 26 23 34 38 38 39 32 23 11 11 16 17 22 30 35 38 42 47 49 48 49 53 56 58 58 53 56 58 60 65 66 67 70 66 64 62 64 55
9 2 11 18 6 11 23 45 48 44 35 25 17 11 8 7 11 20 28 36 40 39 38 40 38 46 51 53 47 45 46 47 49 54 58 59 52 49 51 59 58 56 46 53
8 24 8 9 17 31 41 44 42 34 24 16 12 7 9 14 17 20 27 30 28 30 29 34 45 49 51 45 44 49 53 58 60 54 51 53 56 62 61 55 52 52 54 55
5 23 26 33 49 49 46 39 30 20 16 13 6 9 13 17 20 22 22 24 27 28 32 40 45 46 45 45 46 50 52 55 55 56 54 53 52 51 51 50 50 45 51 59
29 37 46 38 38 39 32 22 14 13 10 8 5 11 13 16 18 18 23 25 33 39 42 43 50 55 55 51 49 52 50 51 51 51 48 51 52 48 46 46 48 50 55 59
44 38 39 41 30 24 28 16 9 10 10 9 9 11 17 24 25 27 27 26 40 39 42 59 64 63 62 58 55 49 49 51 51 50 49 50 53 57 58 58 61 63 67 68
40 31 27 26 25 26 25 17 12 12 12 13 16 18 8 16 18 20 20 27 41 42 43 53 61 70 60 60 64 65 59 55 52 50 48 46 47 46 48 51 53 55 58 55
33 25 20 17 17 18 14 11 9 10 12 8 5 11 10 3 7 16 22 30 37 43 40 43 51 59 67 71 72 68 68 64 58 53 48 45 43 43 43 43 45 51 54 56
33 25 20 15 13 15 10 6 10 8 1 1 4 3 11 4 9 8 18 27 32 37 36 39 45 54 58 55 63 70 72 67 65 60 54 50 46 45 45 45 47 49 49 49
17 16 13 12 11 15 13 12 9 5 8 9 17 15 12 9 5 16 16 22 27 31 30 32 42 48 55 60 56 63 62 68 68 66 61 58 56 56 54 50 48 45 44 43
16 19 19 18 14 15 5 3 9 10 4 5 5 8 6 3 13 15 17 19 22 25 25 33 41 39 43 54 56 56 63 61 59 64 64 63 62 59 56 57 57 57 54 48
21 19 13 10 12 9 13 2 5 9 9 3 1 1 5 10 8 13 11 17 19 22 22 29 34 39 42 48 54 55 59 61 59 60 57 62 62 64 60 57 57 62 68 69
22 20 18 22 16 10 14 15 14 5 4 13 12 12 9 11 9 8 10 18 18 21 28 34 37 38 42 46 49 49 50 56 56 57 55 56 61 64 67 65 63 65 69 72
Wind_Direction_500mb
69 114 93 274 293 295 358 291 149 280 136 165 166 155 150 160 159 141 140 142 147 150 149 154 160 127 108 84 67 55 45 27 25 24 18 13 7 2 355 347 338 316 306 307
186 170 349 285 297 353 348 331 63 93 87 146 157 157 150 149 147 144 139 144 144 144 150 147 147 139 119 89 64 36 17 13 357 353 350 351 348 344 341 343 344 341 329 323
60 91 161 55 7 8 337 299 78 11 168 118 127 135 151 146 149 152 154 153 153 156 160 173 190 213 210 337 351 355 355 11 343 343 348 343 341 341 340 343 343 345 347 342
119 9 150 177 31 7 340 337 336 296 150 147 142 147 160 164 163 158 162 159 162 169 190 197 199 204 209 255 310 299 291 325 318 304 321 327 332 335 332 329 330 333 339 341
130 117 299 322 345 127 217 297 275 195 125 138 153 162 98 133 126 74 341 140 154 192 186 178 197 199 217 242 284 295 292 307 297 289 307 313 317 324 326 324 325 325 323 318
281 133 196 235 190 115 25 318 285 125 132 134 141 125 275 127 142 130 189 195 159 181 192 215 244 213 253 233 293 309 262 267 281 303 315 315 315 322 319 317 314 314 313 314
170 198 82 230 157 80 80 240 340 53 127 131 93 136 136 98 86 115 73 106 149 122 82 92 124 5 287 267 278 291 298 299 296 299 305 308 308 306 304 304 304 304 305 309
86 35 340 320 274 160 194 75 43 87 107 108 106 113 115 107 115 124 108 21 93 108 45 17 338 338 320 308 294 288 305 312 305 307 309 312 312 312 315 317 318 316 315 313
165 185 226 237 81 53 46 40 87 82 99 120 110 101 107 92 109 116 115 122 81 72 57 25 352 333 319 333 320 307 305 305 304 309 311 314 317 319 318 319 318 316 314 313
348 128 131 99 96 82 64 37 58 96 94 101 95 104 105 100 99 97 89 70 17 345 342 344 336 323 317 311 305 305 307 311 309 308 308 313 312 312 314 314 317 316 311 306
261 276 200 60 154 120 129 67 105 92 100 96 92 93 97 94 88 73 60 45 20 360 337 332 314 311 313 314 314 312 310 307 305 309 303 300 301 303 294 293 296 299 303 311
201 83 94 40 50 111 116 144 79 136 123 99 90 89 93 89 91 85 73 58 31 2 324 325 316 307 299 298 295 292 292 296 304 302 295 293 298 302 296 297 300 298 289 290
116 84 83 56 12 327 235 187 174 123 114 100 91 96 90 84 75 69 35 350 333 328 316 305 304 306 309 306 303 303 304 303 301 300 301 298 304 296 299 298 304 310 302 295
102 119 100 80 278 271 218 133 120 105 97 96 107 101 91 73 45 11 341 318 307 306 305 307 307 308 309 311 312 313 314 308 301 298 300 298 295 297 296 305 307 305 300 302
52 77 188 263 202 164 136 142 110 103 104 100 95 92 76 22 348 330 310 305 307 308 306 309 312 316 317 312 312 313 312 309 308 305 298 298 298 301 303 302 297 297 303 295
36 244 251 228 187 145 125 121 110 104 100 100 91 61 17 338 311 308 310 315 320 330 330 334 335 328 324 325 326 322 318 311 309 301 301 304 307 305 294 296 299 299 299 303
35 1 275 148 116 120 111 112 115 115 112 87 63 18 343 340 334 333 338 342 348 360 352 337 323 325 330 339 333 325 318 313 312 309 301 299 293 293 294 294 302 300 299 301
86 90 89 94 111 108 106 109 118 113 87 74 33 8 354 0 1 349 351 2 15 356 337 340 348 347 346 341 333 327 327 326 320 316 315 313 310 307 304 296 294 301 299 301
132 120 110 100 110 105 103 108 100 89 88 93 46 31 15 8 6 17 24 27 7 10 9 14 12 6 357 351 345 338 336 334 330 322 318 317 316 317 313 306 300 297 298 297
105 105 115 105 106 116 113 118 112 104 104 79 60 52 41 31 31 43 47 29 29 21 26 27 18 11 6 7 1 356 349 340 335 330 324 310 300 295 294 293 294 295 295 293
111 107 105 114 121 116 119 124 119 101 80 64 65 73 44 22 25 32 32 22 19 18 18 23 12 12 10 11 13 12 6 356 346 339 331 322 313 308 302 298 298 297 299 304
124 113 105 111 112 115 127 138 129 114 113 117 106 118 99 64 18 355 357 355 358 4 357 3 2 360 1 17 17 15 13 11 5 357 350 343 335 329 322 315 308 302 301 298
143 141 151 156 147 143 143 102 143 146 160 40 42 144 135 134 302 21 345 345 347 354 348 352 352 355 1 6 6 9 13 14 14 14 12 4 356 345 336 326 318 316 314 310
149 150 157 162 161 164 153 146 190 355 55 81 52 61 84 83 39 337 347 336 341 350 349 349 346 352 356 4 0 3 6 12 15 14 17 16 14 12 7 1 353 340 329 322
161 170 171 172 176 190 243 105 199 213 263 285 328 35 34 158 337 343 347 353 352 349 345 341 350 2 353 360 360 2 1 4 5 10 16 19 18 13 12 13 13 10 2 348
183 206 222 204 177 253 234 147 322 226 197 227 38 99 285 304 297 338 345 338 345 353 346 345 3 2 354 350 356 359 357 360 4 9 12 19 21 19 17 17 17 18 18 13
223 229 240 228 225 205 213 201 179 191 249 202 226 261 251 247 299 325 328 314 319 321 328 335 351 358 356 342 343 350 348 355 2 5 11 15 20 24 22 21 21 22 22 22
Wind_Speed_850mb
7 9 3 10 10 26 29 8 3 6 19 30 24 19 44 53 51 59 59 58 53 40 30 18 12 12 14 15 17 18 17 19 23 26 29 31 31 31 31 29 25 24 24 24
10 9 2 18 12 27 41 51 1 26 15 12 38 39 40 43 47 56 61 61 52 40 28 18 14 13 12 13 12 15 18 16 20 22 21 24 29 34 35 36 36 34 31 29
5 8 1 9 19 29 29 24 9 6 17 16 15 24 37 38 52 50 53 47 42 40 29 22 18 10 9 5 12 15 18 15 17 22 30 31 36 39 38 37 36 34 33 30
3 7 5 9 4 21 18 27 44 17 26 30 32 28 39 39 57 51 50 44 36 28 24 14 18 20 18 10 9 17 12 14 19 18 26 36 39 42 42 42 41 38 33 29
8 4 8 13 6 6 3 21 23 7 22 37 44 35 29 45 42 19 42 37 27 21 20 21 27 24 15 9 12 19 21 21 14 15 27 35 39 42 43 46 45 43 41 37
7 8 10 6 14 4 20 18 38 22 17 29 26 8 2 28 31 38 14 24 13 20 11 8 14 10 10 12 9 10 14 17 17 25 30 34 39 38 42 42 50 56 55 53
5 4 4 9 19 49 13 15 15 26 23 29 11 18 41 19 29 37 19 15 16 9 14 25 10 2 7 15 18 19 24 32 39 42 48 46 49 49 53 56 55 54 58 51
6 13 10 41 14 10 20 14 33 32 42 52 49 47 46 41 43 37 33 9 13 11 7 11 12 17 20 29 33 36 40 50 50 50 53 61 65 61 56 53 52 50 49 49
4 15 64 64 28 27 27 17 11 22 20 43 47 43 26 12 4 28 30 14 18 17 13 13 16 15 18 17 22 36 43 43 43 52 59 66 58 51 54 52 54 55 54 53
7 4 5 27 20 11 12 27 17 15 47 40 37 35 43 41 37 32 21 14 9 12 13 16 24 25 23 22 31 46 49 51 52 56 58 51 49 51 53 56 54 55 58 60
12 35 3 8 15 17 15 9 21 27 32 41 44 45 40 35 27 20 19 17 15 16 20 19 19 24 30 37 41 46 46 47 48 48 44 54 53 49 52 57 56 55 53 45
10 9 14 19 19 10 17 9 9 23 22 20 28 32 28 36 32 25 19 12 9 9 11 18 23 28 31 35 36 38 43 52 51 51 51 48 58 77 68 64 52 54 63 62
15 15 17 11 10 9 7 14 13 30 27 25 21 23 33 33 25 15 9 12 19 23 25 31 35 39 43 46 49 53 56 57 54 52 57 68 71 59 58 54 55 60 55 50
22 16 9 3 7 10 9 24 29 27 24 31 34 34 29 22 14 16 19 21 26 28 33 39 45 51 57 60 60 53 52 53 55 57 59 58 53 57 56 62 68 70 58 52
8 4 2 8 13 6 26 23 34 38 38 39 32 23 11 11 16 17 22 30 35 38 42 47 49 48 49 53 56 58 58 53 56 58 60 65 66 67 70 66 64 62 64 55
9 2 11 18 6 11 23 45 48 44 35 25 17 11 8 7 11 20 28 36 40 39 38 40 38 46 51 53 47 45 46 47 49 54 58 59 52 49 51 59 58 56 46 53
8 24 8 9 17 31 41 44 42 34 24 16 12 7 9 14 17 20 27 30 28 30 29 34 45 49 51 45 44 49 53 58 60 54 51 53 56 62 61 55 52 52 54 55
5 23 26 33 49 49 46 39 30 20 16 13 6 9 13 17 20 22 22 24 27 28 32 40 45 46 45 45 46 50 52 55 55 56 54 53 52 51 51 50 50 45 51 59
29 37 46 38 38 39 32 22 14 13 10 8 5 11 13 16 18 18 23 25 33 39 42 43 50 55 55 51 49 52 50 51 51 51 48 51 52 48 46 46 48 50 55 59
44 38 39 41 30 24 28 16 9 10 10 9 9 11 17 24 25 27 27 26 40 39 42 59 64 63 62 58 55 49 49 51 51 50 49 50 53 57 58 58 61 63 67 68
40 31 27 26 25 26 25 17 12 12 12 13 16 18 8 16 18 20 20 27 41 42 43 53 61 70 60 60 64 65 59 55 52 50 48 46 47 46 48 51 53 55 58 55
33 25 20 17 17 18 14 11 9 10 12 8 5 11 10 3 7 16 22 30 37 43 40 43 51 59 67 71 72 68 68 64 58 53 48 45 43 43 43 43 45 51 54 56
33 25 20 15 13 15 10 6 10 8 1 1 4 3 11 4 9 8 18 27 32 37 36 39 45 54 58 55 63 70 72 67 65 60 54 50 46 45 45 45 47 49 49 49
17 16 13 12 11 15 13 12 9 5 8 9 17 15 12 9 5 16 16 22 27 31 30 32 42 48 55 60 56 63 62 68 68 66 61 58 56 56 54 50 48 45 44 43
16 19 19 18 14 15 5 3 9 10 4 5 5 8 6 3 13 15 17 19 22 25 25 33 41 39 43 54 56 56 63 61 59 64 64 63 62 59 56 57 57 57 54 48
21 19 13 10 12 9 13 2 5 9 9 3 1 1 5 10 8 13 11 17 19 22 22 29 34 39 42 48 54 55 59 61 59 60 57 62 62 64 60 57 57 62 68 69
22 20 18 22 16 10 14 15 14 5 4 13 12 12 9 11 9 8 10 18 18 21 28 34 37 38 42 46 49 49 50 56 56 57 55 56 61 64 67 65 63 65 69 72
Wind_Direction_850mb
69 114 93 274 293 295 358 291 149 280 136 165 166 155 150 160 159 141 140 142 147 150 149 154 160 127 108 84 67 55 45 27 25 24 18 13 7 2 355 347 338 316 306 307
186 170 349 285 297 353 348 331 63 93 87 146 157 157 150 149 147 144 139 144 144 144 150 147 147 139 119 89 64 36 17 13 357 353 350 351 348 344 341 343 344 341 329 323
60 91 161 55 7 8 337 299 78 11 168 118 127 135 151 146 149 152 154 153 153 156 160 173 190 213 210 337 351 355 355 11 343 343 348 343 341 341 340 343 343 345 347 342
119 9 150 177 31 7 340 337 336 296 150 147 142 147 160 164 163 158 162 159 162 169 190 197 199 204 209 255 310 299 291 325 318 304 321 327 332 335 332 329 330 333 339 341
130 117 299 322 345 127 217 297 275 195 125 138 153 162 98 133 126 74 341 140 154 192 186 178 197 199 217 242 284 295 292 307 297 289 307 313 317 324 326 324 325 325 323 318
281 133 196 235 190 115 25 318 285 125 132 134 141 125 275 127 142 130 189 195 159 181 192 215 244 213 253 233 293 309 262 267 281 303 315 315 315 322 319 317 314 314 313 314
170 198 82 230 157 80 80 240 340 53 127 131 93 136 136 98 86 115 73 106 149 122 82 92 124 5 287 267 278 291 298 299 296 299 305 308 308 306 304 304 304 304 305 309
86 35 340 320 274 160 194 75 43 87 107 108 106 113 115 107 115 124 108 21 93 108 45 17 338 338 320 308 294 288 305 312 305 307 309 312 312 312 315 317 318 316 315 313
165 185 226 237 81 53 46 40 87 82 99 120 110 101 107 92 109 116 115 122 81 72 57 25 352 333 319 333 320 307 305 305 304 309 311 314 317 319 318 319 318 316 314 313
348 128 131 99 96 82 64 37 58 96 94 101 95 104 105 100 99 97 89 70 17 345 342 344 336 323 317 311 305 305 307 311 309 308 308 313 312 312 314 314 317 316 311 306
261 276 200 60 154 120 129 67 105 92 100 96 92 93 97 94 88 73 60 45 20 360 337 332 314 311 313 314 314 312 310 307 305 309 303 300 301 303 294 293 296 299 303 311
201 83 94 40 50 111 116 144 79 136 123 99 90 89 93 89 91 85 73 58 31 2 324 325 316 307 299 298 295 292 292 296 304 302 295 293 298 302 296 297 300 298 289 290
116 84 83 56 12 327 235 187 174 123 114 100 91 96 90 84 75 69 35 350 333 328 316 305 304 306 309 306 303 303 304 303 301 300 301 298 304 296 299 298 304 310 302 295
102 119 100 80 278 271 218 133 120 105 97 96 107 101 91 73 45 11 341 318 307 306 305 307 307 308 309 311 312 313 314 308 301 298 300 298 295 297 296 305 307 305 300 302
52 77 188 263 202 164 136 142 110 103 104 100 95 92 76 22 348 330 310 305 307 308 306 309 312 316 317 312 312 313 312 309 308 305 298 298 298 301 303 302 297 297 303 295
36 244 251 228 187 145 125 121 110 104 100 100 91 61 17 338 311 308 310 315 320 330 330 334 335 328 324 325 326 322 318 311 309 301 301 304 307 305 294 296 299 299 299 303
35 1 275 148 116 120 111 112 115 115 112 87 63 18 343 340 334 333 338 342 348 360 352 337 323 325 330 339 333 325 318 313 312 309 301 299 293 293 294 294 302 300 299 301
86 90 89 94 111 108 106 109 118 113 87 74 33 8 354 0 1 349 351 2 15 356 337 340 348 347 346 341 333 327 327 326 320 316 315 313 310 307 304 296 294 301 299 301
132 120 110 100 110 105 103 108 100 89 88 93 46 31 15 8 6 17 24 27 7 10 9 14 12 6 357 351 345 338 336 334 330 322 318 317 316 317 313 306 300 297 298 297
105 105 115 105 106 116 113 118 112 104 104 79 60 52 41 31 31 43 47 29 29 21 26 27 18 11 6 7 1 356 349 340 335 330 324 310 300 295 294 293 294 295 295 293
111 107 105 114 121 116 119 124 119 101 80 64 65 73 44 22 25 32 32 22 19 18 18 23 12 12 10 11 13 12 6 356 346 339 331 322 313 308 302 298 298 297 299 304
124 113 105 111 112 115 127 138 129 114 113 117 106 118 99 64 18 355 357 355 358 4 357 3 2 360 1 17 17 15 13 11 5 357 350 343 335 329 322 315 308 302 301 298
143 141 151 156 147 143 143 102 143 146 160 40 42 144 135 134 302 21 345 345 347 354 348 352 352 355 1 6 6 9 13 14 14 14 12 4 356 345 336 326 318 316 314 310
149 150 157 162 161 164 153 146 190 355 55 81 52 61 84 83 39 337 347 336 341 350 349 349 346 352 356 4 0 3 6 12 15 14 17 16 14 12 7 1 353 340 329 322
161 170 171 172 176 190 243 105 199 213 263 285 328 35 34 158 337 343 347 353 352 349 345 341 350 2 353 360 360 2 1 4 5 10 16 19 18 13 12 13 13 10 2 348
183 206 222 204 177 253 234 147 322 226 197 227 38 99 285 304 297 338 345 338 345 353 346 345 3 2 354 350 356 359 357 360 4 9 12 19 21 19 17 17 17 18 18 13
223 229 240 228 225 205 213 201 179 191 249 202 226 261 251 247 299 325 328 314 319 321 328 335 351 358 356 342 343 350 348 355 2 5 11 15 20 24 22 21 21 22 22 22